• In Deutschland
  • Länderverzeichnis
  • Für 7 Tage
  • Wassertemperatur
  • Satellitenkarten
  • Wetterkarte
  • Widgets
  • user-avatar
    Anmelden

    Stündliche Wetter Wipperfürth

    Heute, 14 August, Dienstag

    Zeit Temperatur Niederschläge Wind Luftdruck Luftfeuchtigkeit
    00:00 +16°C° 0 mm 2 m/S 731 mmHg 89%
    01:00 +16°C° 0,1 mm 3 m/S 731 mmHg 90%
    02:00 +14°C° 0,1 mm 3 m/S 731 mmHg 91%
    03:00 +14°C° 0,1 mm 3 m/S 731 mmHg 92%
    04:00 +16°C° 0 mm 3 m/S 732 mmHg 91%
    05:00 +16°C° 0 mm 3 m/S 732 mmHg 90%
    06:00 +15°C° 0 mm 4 m/S 732 mmHg 90%
    07:00 +17°C° 0,1 mm 4 m/S 733 mmHg 87%
    08:00 +17°C° 0,1 mm 4 m/S 733 mmHg 85%
    09:00 +18°C° 0,1 mm 4 m/S 733 mmHg 83%
    10:00 +19°C° 0,1 mm 4 m/S 734 mmHg 76%
    11:00 +21°C° 0,1 mm 4 m/S 734 mmHg 68%
    12:00 +22°C° 0,1 mm 5 m/S 734 mmHg 61%
    13:00 +23°C° 0,2 mm 4 m/S 734 mmHg 59%
    14:00 +23°C° 0,2 mm 4 m/S 734 mmHg 58%
    15:00 +25°C° 0,2 mm 4 m/S 735 mmHg 56%
    16:00 +23°C° 0,1 mm 4 m/S 735 mmHg 60%
    17:00 +22°C° 0,1 mm 3 m/S 735 mmHg 65%
    18:00 +21°C° 0,1 mm 3 m/S 735 mmHg 70%
    19:00 +20°C° 0 mm 2 m/S 736 mmHg 73%
    20:00 +18°C° 0 mm 2 m/S 736 mmHg 77%
    21:00 +17°C° 0 mm 2 m/S 737 mmHg 81%
    22:00 +17°C° 0 mm 2 m/S 737 mmHg 81%
    23:00 +16°C° 0 mm 2 m/S 737 mmHg 82%

    Morgen, 15 August, Mittwoch

    Zeit Temperatur Niederschläge Wind Luftdruck Luftfeuchtigkeit
    00:00 +16°C° 0 mm 2 m/S 737 mmHg 83%
    01:00 +15°C° 0 mm 2 m/S 737 mmHg 84%
    02:00 +15°C° 0 mm 1 m/S 737 mmHg 85%
    03:00 +14°C° 0 mm 1 m/S 737 mmHg 85%
    04:00 +15°C° 0 mm 1 m/S 737 mmHg 84%
    05:00 +15°C° 0 mm 1 m/S 737 mmHg 82%
    06:00 +16°C° 0 mm 2 m/S 738 mmHg 81%
    07:00 +18°C° 0 mm 2 m/S 738 mmHg 75%
    08:00 +19°C° 0 mm 2 m/S 738 mmHg 68%
    09:00 +21°C° 0 mm 2 m/S 738 mmHg 62%
    10:00 +23°C° 0 mm 2 m/S 738 mmHg 59%
    11:00 +24°C° 0 mm 2 m/S 738 mmHg 56%
    12:00 +25°C° 0 mm 2 m/S 738 mmHg 53%
    13:00 +25°C° 0 mm 2 m/S 738 mmHg 53%
    14:00 +25°C° 0 mm 2 m/S 738 mmHg 53%
    15:00 +26°C° 0 mm 2 m/S 738 mmHg 52%
    16:00 +25°C° 0 mm 2 m/S 737 mmHg 56%
    17:00 +24°C° 0 mm 1 m/S 737 mmHg 60%
    18:00 +24°C° 0 mm 1 m/S 737 mmHg 63%
    19:00 +23°C° 0 mm 1 m/S 737 mmHg 67%
    20:00 +22°C° 0 mm 1 m/S 737 mmHg 71%
    21:00 +20°C° 0 mm 1 m/S 738 mmHg 75%
    22:00 +20°C° 0 mm 1 m/S 738 mmHg 77%
    23:00 +19°C° 0 mm 1 m/S 737 mmHg 80%

    übermorgen, 16 August, Donnerstag

    Zeit Temperatur Niederschläge Wind Luftdruck Luftfeuchtigkeit
    00:00 +19°C° 0 mm 1 m/S 737 mmHg 82%
    01:00 +18°C° 0 mm 1 m/S 737 mmHg 84%
    02:00 +18°C° 0 mm 1 m/S 737 mmHg 85%
    03:00 +18°C° 0 mm 1 m/S 737 mmHg 87%
    04:00 +18°C° 0 mm 1 m/S 737 mmHg 84%
    05:00 +19°C° 0 mm 1 m/S 737 mmHg 82%
    06:00 +19°C° 0 mm 1 m/S 737 mmHg 80%
    07:00 +20°C° 0 mm 2 m/S 737 mmHg 72%
    08:00 +23°C° 0 mm 2 m/S 737 mmHg 63%
    09:00 +25°C° 0 mm 2 m/S 737 mmHg 55%
    10:00 +26°C° 0 mm 2 m/S 736 mmHg 50%
    11:00 +28°C° 0 mm 2 m/S 736 mmHg 45%
    12:00 +29°C° 0 mm 2 m/S 736 mmHg 40%
    13:00 +29°C° 0 mm 2 m/S 735 mmHg 39%
    14:00 +30°C° 0 mm 2 m/S 735 mmHg 37%
    15:00 +30°C° 0 mm 2 m/S 734 mmHg 36%
    16:00 +29°C° 0 mm 2 m/S 734 mmHg 41%
    17:00 +28°C° 0 mm 1 m/S 734 mmHg 45%
    18:00 +26°C° 0 mm 1 m/S 734 mmHg 50%
    19:00 +25°C° 0 mm 1 m/S 734 mmHg 54%
    20:00 +24°C° 0 mm 1 m/S 734 mmHg 58%
    21:00 +22°C° 0 mm 1 m/S 735 mmHg 62%
    22:00 +21°C° 0,1 mm 1 m/S 734 mmHg 67%
    23:00 +19°C° 0,1 mm 2 m/S 734 mmHg 72%

    17 August, Freitag

    Zeit Temperatur Niederschläge Wind Luftdruck Luftfeuchtigkeit
    00:00 +19°C° 0,1 mm 2 m/S 734 mmHg 77%
    01:00 +19°C° 0,1 mm 1 m/S 734 mmHg 81%
    02:00 +18°C° 0,1 mm 1 m/S 735 mmHg 85%
    03:00 +18°C° 0,1 mm 1 m/S 735 mmHg 88%
    04:00 +18°C° 0,3 mm 1 m/S 735 mmHg 88%
    05:00 +18°C° 0,3 mm 1 m/S 735 mmHg 88%
    06:00 +19°C° 0,3 mm 1 m/S 735 mmHg 88%
    07:00 +18°C° 0,2 mm 2 m/S 736 mmHg 85%
    08:00 +19°C° 0,2 mm 2 m/S 736 mmHg 82%
    09:00 +20°C° 0,2 mm 2 m/S 736 mmHg 79%
    10:00 +20°C° 0,1 mm 2 m/S 736 mmHg 74%
    11:00 +21°C° 0,1 mm 2 m/S 736 mmHg 69%
    12:00 +21°C° 0,1 mm 2 m/S 736 mmHg 65%
    13:00 +23°C° 0 mm 2 m/S 737 mmHg 59%
    14:00 +24°C° 0 mm 2 m/S 737 mmHg 53%
    15:00 +25°C° 0 mm 2 m/S 737 mmHg 47%
    16:00 +24°C° 0 mm 2 m/S 737 mmHg 50%
    17:00 +23°C° 0 mm 2 m/S 737 mmHg 53%
    18:00 +21°C° 0 mm 2 m/S 737 mmHg 55%
    19:00 +20°C° 0 mm 2 m/S 738 mmHg 58%
    20:00 +18°C° 0 mm 2 m/S 738 mmHg 61%
    21:00 +18°C° 0 mm 1 m/S 739 mmHg 64%
    22:00 +16°C° 0 mm 1 m/S 739 mmHg 66%
    23:00 +16°C° 0 mm 1 m/S 739 mmHg 67%

    18 August, Samstag

    Zeit Temperatur Niederschläge Wind Luftdruck Luftfeuchtigkeit
    00:00 +15°C° 0 mm 1 m/S 739 mmHg 69%
    01:00 +15°C° 0 mm 1 m/S 739 mmHg 71%
    02:00 +14°C° 0 mm 1 m/S 739 mmHg 72%
    03:00 +14°C° 0 mm 1 m/S 739 mmHg 73%
    04:00 +14°C° 0 mm 1 m/S 739 mmHg 71%
    05:00 +15°C° 0 mm 1 m/S 739 mmHg 70%
    06:00 +15°C° 0 mm 1 m/S 740 mmHg 68%
    07:00 +17°C° 0 mm 2 m/S 740 mmHg 61%
    08:00 +19°C° 0 mm 2 m/S 740 mmHg 55%
    09:00 +21°C° 0 mm 2 m/S 740 mmHg 49%
    10:00 +22°C° 0 mm 3 m/S 740 mmHg 46%
    11:00 +24°C° 0 mm 3 m/S 740 mmHg 43%
    12:00 +25°C° 0 mm 3 m/S 740 mmHg 40%
    13:00 +25°C° 0 mm 3 m/S 739 mmHg 41%
    14:00 +25°C° 0 mm 3 m/S 739 mmHg 43%
    15:00 +26°C° 0 mm 3 m/S 739 mmHg 44%
    16:00 +25°C° 0 mm 3 m/S 739 mmHg 50%
    17:00 +24°C° 0 mm 2 m/S 739 mmHg 57%
    18:00 +23°C° 0 mm 2 m/S 739 mmHg 63%
    19:00 +20°C° 0 mm 2 m/S 739 mmHg 67%
    20:00 +19°C° 0 mm 2 m/S 740 mmHg 72%
    21:00 +18°C° 0 mm 2 m/S 740 mmHg 77%
    22:00 +18°C° 0 mm 2 m/S 740 mmHg 79%
    23:00 +17°C° 0 mm 2 m/S 740 mmHg 82%

    19 August, Sonntag

    Zeit Temperatur Niederschläge Wind Luftdruck Luftfeuchtigkeit
    00:00 +17°C° 0 mm 2 m/S 740 mmHg 84%
    01:00 +16°C° 0 mm 2 m/S 740 mmHg 86%
    02:00 +16°C° 0 mm 2 m/S 740 mmHg 87%
    03:00 +15°C° 0 mm 2 m/S 740 mmHg 88%
    04:00 +16°C° 0 mm 2 m/S 740 mmHg 86%
    05:00 +16°C° 0 mm 2 m/S 740 mmHg 85%
    06:00 +17°C° 0 mm 2 m/S 740 mmHg 83%
    07:00 +18°C° 0 mm 2 m/S 740 mmHg 76%
    08:00 +20°C° 0 mm 2 m/S 740 mmHg 68%
    09:00 +23°C° 0 mm 2 m/S 740 mmHg 61%
    10:00 +24°C° 0 mm 2 m/S 740 mmHg 58%
    11:00 +26°C° 0 mm 2 m/S 740 mmHg 54%
    12:00 +27°C° 0 mm 2 m/S 740 mmHg 50%
    13:00 +27°C° 0 mm 2 m/S 740 mmHg 50%
    14:00 +27°C° 0 mm 2 m/S 739 mmHg 51%
    15:00 +27°C° 0 mm 2 m/S 739 mmHg 51%
    16:00 +26°C° 0 mm 2 m/S 739 mmHg 56%
    17:00 +25°C° 0 mm 2 m/S 739 mmHg 61%
    18:00 +24°C° 0 mm 2 m/S 739 mmHg 67%
    19:00 +23°C° 0 mm 2 m/S 739 mmHg 71%
    20:00 +21°C° 0 mm 2 m/S 739 mmHg 76%
    21:00 +20°C° 0 mm 2 m/S 740 mmHg 81%
    22:00 +19°C° 0 mm 2 m/S 739 mmHg 83%
    23:00 +20°C° 0 mm 1 m/S 739 mmHg 85%
    Mehr zeigen